Starlink 34095

operational
NORAD ID: 63809 Int'l Des: 2025-092 Owner: SPXS Country: US Constellation: starlink
LEOCIRCULAR

关于 Starlink 34095

正在加载描述...

实时位置

正在加载3D地球...

即将过境

高度历史

Altitude vs Time

uPlot chart will show altitude changes over time

两行轨道根数

1 63809U 25092F 25352.17691268 .00034904 00000-0 12716-2 0 9990
2 63809 43.0038 273.2988 0001418 267.5190 92.5499 15.27587852 36141
Epoch: Dec 18, 2025 • Age: 12 hours

当前状态

高度 487.8 km
速度 7.62 km/s
星下点 -23.05°S, 147.45°E
发射日期 May 4, 2025
运行时间 0.6 years
类型 internet

技术详情

分类 Payload
质量 575.00 kg
干质量 530.00 kg
总质量 575.00 kg
长度 0.30 m
直径 4.10 m
跨度 29.00 m
形状 Box + pan
制造商 SPXS
平台类型 Starlink V2MO
阶段状态 In Orbit
所有者/国家 SPXS/US

大型星座

Loading constellations...